www.pogodaiklimat.ru

Погода и климат >> Архив погоды >> Буркина-Фасо >> Ouahigouya


ПОГОДА в Ouahigouya

  • Прогноз погоды в Ouahigouya
  • Монитор погоды в Ouahigouya
  • Климат города

АРХИВ ПОГОДЫ в Ouahigouya

Время (UTC), дата Ветер
(напр.,м/с)
 
Видим.   Явления Облачность Т
(С)
Тd
(С)
f
(%)
Тe
(С)
Тes
(С)
Комфортность P
(гПа)
Po
(гПа)
Тmin
(С)
Tmax
(С)
R
(мм)
S
(см)
15 14.02 В 3 10 км 9/0
[Ac As Ci sp]
+36.0 -1.3 9 +32 +35 жарко 1007.9 971.1
18 14.02 В 2 10 км 9/0
[Ac As Ci sp]
+34.1 +0.3 12 +31 +31 жарко 1008.5 971.6 +37.1
21 14.02 В 1 10 км 9/0
[Ac As Ci sp]
+30.1 +4.0 19 +28 +28 жарко 1010.9 973.8
00 15.02 В 1 10 км 9/0
[Ac As Ci sp]
+27.4 +4.6 23 +26 +26 жарко 1011.1 974.2
03 15.02 В 4 10 км 9/0
[Ac As]
+27.1 -3.2 13 +24 +24 комфорт 1010.1 973.2
06 15.02 В 2 10 км 9/0
[Ac As Ci sp]
+24.9 -3.8 15 +23 +23 комфорт 1010.9 973.8 +24.7
09 15.02 В 3 8000 м пыль 9/0
[Ci sp]
+27.9 -14.7 5 +24 +29 комфорт 1013.2 976.0
12 15.02 ЮВ 4 6000 м пыль 9/0
[Ac trans Ci sp]
+33.7 -24.6 2 +29 +37 жарко 1012.7 975.6
15 15.02 ЮВ 4 6000 м пыль 9/0
[Ac trans Ci sp]
+36.1 -27.5 1 +31 +35 жарко 1009.5 972.7
18 15.02 В 3 6000 м пыль 9/0
[Ac As Ci sp]
+33.6 -22.9 2 +29 +29 жарко 1010.2 973.0 +36.8
21 15.02 ЮВ 3 6000 м пыль 9/0
[Ci sp]
+29.5 -13.8 5 +25 +25 комфорт 1011.4 974.1
00 16.02 В 1 8000 м пыль 9/0
[Ac trans Ci sp]
+25.1 -3.3 15 +23 +23 комфорт 1012.1 974.9
03 16.02 В 1 8000 м пыль 9/0
[Ac As Ci sp]
+24.7 -9.1 10 +22 +22 комфорт 1011.0 973.9
06 16.02 В 2 8000 м пыль 9/0
[Ci sp]
+24.0 -12.7 8 +21 +21 комфорт 1011.7 974.5 +24.0
09 16.02 В 4 8000 м пыль 9/0
[Ci sp]
+27.5 -12.9 6 +24 +28 комфорт 1013.6 976.2
12 16.02 В 5 6000 м пыль 9/0
[Ci sp]
+34.0 -15.2 4 +29 +37 жарко 1013.1 975.9
15 16.02 ЮВ 4 6000 м пыль 9/0
[Ci sp]
+35.6 -14.7 3 +31 +36 жарко 1009.9 972.9
18 16.02 ЮВ 3 8000 м пыль 9/0
[Ac As Ci sp]
+33.5 -14.0 4 +29 +29 жарко 1009.7 972.5 +36.3
21 16.02 ЮВ 3 10 км 9/0
[Ci sp]
+29.7 -6.0 9 +26 +26 жарко 1012.1 974.9
00 17.02 В 3 8000 м пыль 9/0
[Ci sp]
+26.6 -6.9 10 +24 +24 комфорт 1013.1 976.0
03 17.02 ЮВ 3 8000 м пыль 9/0
[Ci sp]
+24.0 -7.6 12 +22 +22 комфорт 1012.0 974.9
06 17.02 В 3 6000 м пыль 9/0
[Ci sp]
+21.7 -4.4 17 +21 +21 комфорт 1012.4 975.0 +21.5
09 17.02 ЮВ 5 6000 м пыль 9/0
[Ci sp]
+26.2 -9.7 9 +23 +26 комфорт 1014.5 977.0
12 17.02 В 6 6000 м пыль 9/0
[Ci sp]
+32.9 -12.4 5 +28 +34 жарко 1013.5 976.3
15 17.02 ЮВ 5 6000 м пыль 9/0
[Ci sp]
+34.5 -14.1 4 +30 +34 жарко 1010.5 973.4
18 17.02 ЮВ 4 6000 м пыль 9/0
[Ci sp]
+32.9 -9.8 6 +29 +29 жарко 1010.8 973.4 +35.5
21 17.02 ЮВ 3 6000 м пыль 9/0
[Ci sp]
+28.0 -4.7 11 +25 +25 комфорт 1013.3 975.8
00 18.02 ЮВ 3 6000 м пыль 9/0
[Ci sp]
+25.3 -3.7 14 +23 +23 комфорт 1013.9 976.6
03 18.02 ЮВ 3 6000 м пыль 9/0
[Ci sp]
+23.0 -3.5 17 +21 +21 комфорт 1013.2 975.9
06 18.02 ЮВ 1 6000 м пыль 9/0
[Ci sp]
+21.0 -4.3 18 +22 +22 комфорт 1013.4 975.8 +21.0
09 18.02 В 5 2000 м пыль 9/0
[Ci sp]
+25.6 -14.1 6 +22 +25 комфорт 1015.5 977.8
12 18.02 В 3 2000 м пыль 9/0
[Ci sp]
+31.1 -16.0 4 +26 +39 жарко 1014.3 976.9
15 18.02 В 4 6000 м пыль 9/0
[Ci sp]
+33.8 -16.6 3 +29 +34 жарко 1011.2 973.9
18 18.02 В 2 6000 м пыль 9/0
[Ac trans Ci sp]
+31.7 -8.3 7 +28 +28 жарко 1011.5 974.0 +34.5
21 18.02 В 3 8000 м пыль 9/0
[Ci sp]
+26.8 -7.5 10 +24 +24 комфорт 1013.5 975.9
00 19.02 В 2 8000 м пыль 9/0
[Ci sp]
+23.2 -3.9 16 +21 +21 комфорт 1014.4 976.9
03 19.02 В 3 8000 м пыль 9/0
[Ac trans Ci sp]
+21.0 -2.9 20 +20 +20 1013.3 975.9
06 19.02 В 2 8000 м пыль 9/0
[Ci sp]
+19.2 -4.9 19 +20 +20 1014.3 976.5 +19.2
09 19.02 ЮВ 3 8000 м пыль 9/0
[Ac trans Ci sp]
+25.0 -10.0 9 +22 +27 комфорт 1015.7 977.9
12 19.02 ЮВ 4 6000 м пыль 9/0
[Ci sp]
+31.4 -17.7 3 +27 +37 жарко 1013.7 976.2
15 19.02 ЮВ 3 6000 м пыль 9/0
[Ci sp]
+33.2 -17.3 3 +28 +35 жарко 1010.4 973.0
18 19.02 ЮВ 2 8000 м пыль 9/0
[Ci sp]
+31.8 -11.8 5 +27 +27 жарко 1010.1 972.5 +34.3
21 19.02 ЮВ 2 8000 м пыль 9/0
[Ci sp]
+27.0 -5.0 12 +24 +24 комфорт 1012.7 975.1
00 20.02 В 2 8000 м пыль 9/0
[Ci sp]
+24.9 -5.4 13 +23 +23 комфорт 1012.2 974.9
03 20.02 В 2 8000 м пыль 9/0
[Ci sp]
+21.8 -3.2 18 +21 +21 комфорт 1011.5 974.1
06 20.02 В 3 8000 м пыль 9/0
[Ci sp]
+20.4 -8.1 14 +20 +20 1011.9 974.3 +20.3
09 20.02 ЮВ 2 8000 м пыль 9/0
[Ci sp]
+26.1 -7.4 10 +23 +30 комфорт 1014.0 976.4
12 20.02 ЮВ 3 8000 м пыль 9/0
[Ci sp]
+32.1 -12.1 5 +28 +40 жарко 1012.2 974.9
15 20.02 ЮВ 1 8000 м пыль 9/0
[Ci sp]
+34.5 -14.1 4 +30 +39 жарко 1009.2 972.0
18 20.02 ЮВ 2 8000 м пыль 9/0
[Ci sp]
+33.0 -7.8 7 +29 +29 жарко 1009.1 971.7 +35.2
21 20.02 ЮВ 2 8000 м пыль 9/0
[Ci sp]
+26.6 +0.8 19 +25 +25 комфорт 1010.8 973.3
00 21.02 В 2 8000 м пыль 9/0
[Ci sp]
+24.0 -2.8 17 +22 +22 комфорт 1011.1 973.8
03 21.02 В 2 8000 м пыль 9/0
[Ci sp]
+21.7 -3.0 19 +21 +21 комфорт 1009.6 972.4
06 21.02 В 3 8000 м пыль 9/0
[Ci sp]
+20.6 -4.8 18 +21 +21 комфорт 1009.8 972.4 +20.6
09 21.02 ЮВ 2 10 км 9/0
[Ci sp]
+27.0 -11.8 7 +23 +30 комфорт 1012.6 975.0

 

Местоположение метеостанции Ouahigouya (Буркина-Фасо): широта 13.57 долгота -2.42 высота над уровнем моря 336 м.

В архиве по умолчанию представлена погода в Ouahigouya за последнюю неделю. Архивные данные за месяц целиком и за предыдущие месяцы, начиная с января 2011 года, Вы можете получить, выбрав интересующий диапазон дат из раскрывающегося списка и нажав кнопку "Ввод!".

Внимание! Время в таблицах - всемирное. Для получения местного времени необходимо прибавить поправку, которая в Ouahigouya равна 0 ч.

Смотрите также архив погоды в соседних городах и на ближайших метеорологических станциях:

Погода в Ouagadougou (Буркина-Фасо) (167 км)
Погода в Dedougou (Буркина-Фасо) (168 км)
Погода в Mopti (Мали) (210 км)
Погода в Boromo (Буркина-Фасо) (210 км)
Погода в San (Мали) (262 км)
Погода в Dori (Буркина-Фасо) (263 км)
Погода в Po (Буркина-Фасо) (302 км)
Погода в Navrongo (Гана) (330 км)
Погода в Bobo-Dioulasso (Буркина-Фасо) (337 км)
Погода в Fada N`Gourma (Буркина-Фасо) (348 км)

Пояснения к столбцам:

Ветер - указаны скорость ветра в м/с - средняя за 10 мин, порывы в срок и между сроками (в фигурных скобках) и направление, откуда дует ветер: С - северный, СВ - северо-восточный, В - восточный, ЮВ - юго-восточный, Ю - южный, ЮЗ - юго-западный, З - западный, СЗ - северо-западный.
Видимость - горизонтальная дальность видимости в метрах или километрах. При видимости от 1 до 10 км при отсутствии осадков обычно наблюдается дымка, при ухудшении видимости до 1 км и менее - туман. В сухую погоду видимость может ухудшаться дымом, пылью или мглою.
Явления - указаны атмосферные явления, наблюдавшиеся в срок или в последний час перед сроком; фигурными скобками обозначены явления, наблюдавшиеся между сроками (за 1-3 часа до срока); квадратными скобками обозначены град или гололедные отложения с указанием их диаметра в мм.
Облачность - указаны через наклонную черту общая и нижняя облачность в баллах и высота нижней границы облаков в метрах; квадратными скобками обозначены формы облаков: Ci - перистые, Cs - перисто-слоистые, Cc - перисто-кучевые, Ac - высококучевые, As - высокослоистые, Sc - слоисто-кучевые, Ns - слоисто-дождевые, Cu - кучевые, Cb - кучево-дождевые. Подробнее классификацию облаков см. в Атласе облаков (PDF).
T - Температура воздуха - температура, измеренная на высоте 2 м над землей.
Td - Температура точки росы - температура, при понижении до которой содержащийся в воздухе водяной пар достигнет насыщения.
f - Относительная влажность воздуха - влажноcть воздуха, измеренная на высоте 2 м над землей.
Te - Эффективная температура - температура, которую ощущает одетый по сезону человек в тени. Характеристика душности погоды. При расчете учитывается влияние влажности воздуха и скорости ветра на теплоощущения человека.
Tes - Эффективная температура на солнце - температура, которую ощущает человек, с поправкой на солнечный нагрев. Характеристика знойности погоды. Зависит от высоты солнца над горизонтом, облачности и скорости ветра. Ночью, в пасмурную погоду, а также при ветре 12 м/с и более поправка равна нулю.
P - Атмосферное давление - приведенное к уровню моря атмосферное давление.
Po - Атмосферное давление - измеренное на уровне метеостанции атмосферное давление.
Tmin - Минимальная температура - минимум температуры воздуха на высоте 2 м над землей.
Tmax - Максимальная температура - максимум температуры воздуха на высоте 2 м над землей.
R - Количество осадков - Количество выпавших осадков, мм. При наведении курсора мыши на число - период времени, за который выпало указанное количество осадков.
S - Снежный покров - Высота снежного покрова, см. При наведении курсора мыши на число - состояние снежного покрова и степень покрытия местности в баллах.